COSMOS 1275 DEB, 42095

Orbit data source: Space-Track

COSMOS 1275 DEB, 42095 is space debris in LEO originally from a launch on Thu, 04 Jun 1981 UTC launched from the Plesetsk Missile And Space Complex (PKMTR). Debris objects in space refer to the collection of defunct objects orbiting the Earth. Examples of debris include non-operational satellites, rocket bodies, and fragments generated from explosions, collisions, or faulty payload assembly.

Loading next visibility...
COSMOS 1275 DEB details
Identifier
42095, 1981-053PF
Orbit
LEO
Last TLE update1 week ago
Origin
Flag of CISGUKOS (CIS)
ManufacturerUnknown
MissionSpacecraft
Bus & MotorUnknown
MassUnknown
Launch date (UTC)
1981-06-04 (44 years ago)
Launch vehicleUnknown
Launch site
Plesetsk Missile And Space Complex (PKMTR)
Object type
Payload
Rocket body
Debris
Shape & HBRUnknown
Radar Cross SectionSmall (<0.1 m²)

Expand to show TLE details & history

TLE from 1 week ago
0 COSMOS 1275 DEB
1 42095U 81053PF  24352.43158788  .00002539  00000-0  24099-2 0  9992
2 42095  82.7533 237.1661 0133544 297.8238  60.9437 13.76697138554302
Epoch: 2024-12-17T10:21Z
Definitive object data (Epoch: 2024-12-17T10:21:29.192Z)
Latitude-0.00005°
Longitude-4.74579°
Altitude931.831 km
Speed7.409 km/s
True Right ascension15h 48m 39s
True Declination0° 00' 00"
Sunlit
Object was in daylight at TLE epoch
Visualization TLE readout
Latitude-1.41835°
Longitude168.14203°
Altitude977.062 km
Speed7.364 km/s
Apparent Right ascension06h 01m 48s
Apparent Declination-32° 15' 49"
Sunlit
Object is in full shadow
Visualization observer readout
Local Sidereal Time23:08:11
Azimuth109.027° ESE
Elevation-29.528°
Doppler factor1
Orbital elements
Apogee altitude1,070.945 km
Perigee altitude874.611 km
Semi-major axis7,350.915 km
Eccentricity0.0133544
Inclination82.7533°
RAAN237.1661°
Arg. of periapsis297.8238°
True anomaly62.29221°
Mean anomaly60.9437°
Eccentric anomaly61.61687°
Mean motion3.44375 °/min
BSTAR0.0024099
Orbital period104.54 mins
Loading maneuver chart data...
Loading historical data...
Loading historical data...
Loading historical data...
Loading historical data...
Loading historical data...
Loading historical data...
Loading historical data...

COSMOS 1275 DEB Visibility forecast

Observer location: undefined°, undefined

Span
Click to sort rows by Start time (UTC) header in descending order
Start Az.
Max El. time (UTC)
Max El. Az.
Max El.
End time (UTC)
End Az.
12 mins2024-12-27 02:55:49.480Z3.049° NNE2024-12-27 03:01:49.480Z84.102° E39.249°2024-12-27 03:07:49.480Z155.668° SSE
8 mins2024-12-27 04:42:49.480Z317.357° NNW2024-12-27 04:46:49.480Z272.929° WNW21.414°2024-12-27 04:50:49.480Z231.149° WSW
6 mins2024-12-27 14:42:49.480Z104.917° ESE2024-12-27 14:44:49.480Z83.812° E16.662°2024-12-27 14:48:49.480Z44.776° NE
11 mins2024-12-27 16:24:49.480Z196.787° SSW2024-12-27 16:29:49.480Z288.359° WNW43.452°2024-12-27 16:35:49.480Z2.544° NNE
|